Location: Czu?�w
(50.1404°N, 18.9919°E)
Time: 02:34:46
(UTC+00:00)

Timation 1 Rocket - Pass Details

Date: 27 October 2020
Orbit: 896 x 911 km, 70.0° (Epoch: 27 November)

Event Time Altitude Azimuth Distance (km) Brightness Sun altitude
Rises 17:26:10 0° 329° (NNW) 3,549 7.9 -19.3°
Reaches altitude 10° 17:28:42 10° 332° (NNW) 2,605 7.1 -19.7°
Maximum altitude 17:34:43 69° 56° (NE) 977 4.3 -20.7°
Enters shadow 17:37:25 34° 130° (SE) 1,460 5.0 -21.1°
